H1 CPF 2 NER 2025 9 17 9 260 01 glonass142 H2 2001801 9142 45358 2025 9 17 0 0 0 2025 9 20 23 45 0 900 1 1 0 0 0 1 H9 10 0 60935 0.00000 0 -5605250.316 -9441258.394 -23003556.693 10 0 60935 900.00000 0 -3329651.459 -11114790.259 -22698496.896 10 0 60935 1800.00000 0 -1231291.822 -12907082.805 -21951810.507 10 0 60935 2700.00000 0 645863.406 -14764820.349 -20778155.235 10 0 60935 3600.00000 0 2268634.057 -16628650.999 -19200489.689 10 0 60935 4500.00000 0 3615761.814 -18435580.704 -17249616.162 10 0 60935 5400.00000 0 4678538.705 -20121536.450 -14963571.427 10 0 60935 6300.00000 0 5460903.170 -21623991.106 -12386877.952 10 0 60935 7200.00000 0 5979001.953 -22884539.969 -9569670.639 10 0 60935 8100.00000 0 6260238.546 -23851321.214 -6566716.531 10 0 60935 9000.00000 0 6341850.377 -24481179.182 -3436346.925 10 0 60935 9900.00000 0 6269076.499 -24741480.309 -239323.036 10 0 60935 10800.00000 0 6092994.597 -24611506.271 2962342.548 10 0 60935 11700.00000 0 5868119.644 -24083366.670 6106585.642 10 0 60935 12600.00000 0 5649866.227 -23162393.767 9132488.263 10 0 60935 13500.00000 0 5491981.926 -21867003.399 11981451.516 10 0 60935 14400.00000 0 5444059.946 -20228028.350 14598321.408 10 0 60935 15300.00000 0 5549235.617 -18287552.267 16932446.495 10 0 60935 16200.00000 0 5842163.350 -16097292.637 18938647.870 10 0 60935 17100.00000 0 6347358.906 -13716599.764 20578083.789 10 0 60935 18000.00000 0 7077976.449 -11210154.172 21818993.281 10 0 60935 18900.00000 0 8035071.926 -8645457.043 22637305.370 10 0 60935 19800.00000 0 9207384.264 -6090216.480 23017102.931 10 0 60935 20700.00000 0 10571644.531 -3609736.629 22950932.671 10 0 60935 21600.00000 0 12093401.631 -1264416.439 22439955.322 10 0 60935 22500.00000 0 13728331.730 892539.528 21493932.826 10 0 60935 23400.00000 0 15423978.655 2817104.339 20131051.958 10 0 60935 24300.00000 0 17121854.442 4476024.436 18377586.704 10 0 60935 25200.00000 0 18759814.014 5847962.008 16267404.523 10 0 60935 26100.00000 0 20274605.982 6924136.592 13841324.578 10 0 60935 27000.00000 0 21604493.704 7708439.080 11146338.892 10 0 60935 27900.00000 0 22691837.040 8217013.221 8234710.255 10 0 60935 28800.00000 0 23485526.156 8477322.017 5162963.452 10 0 60935 29700.00000 0 23943164.318 8526738.200 1990788.900 10 0 60935 30600.00000 0 24032906.593 8410718.362 -1220120.120 10 0 60935 31500.00000 0 23734875.498 8180638.263 -4407273.542 10 0 60935 32400.00000 0 23042092.323 7891381.612 -7508609.671 10 0 60935 33300.00000 0 21960883.272 7598785.454 -10463714.490 10 0 60935 34200.00000 0 20510741.930 7357051.694 -13215010.057 10 0 60935 35100.00000 0 18723652.775 7216235.891 -15708887.599 10 0 60935 36000.00000 0 16642903.457 7219921.260 -17896762.057 10 0 60935 36900.00000 0 14321435.488 7403177.811 -19736026.559 10 0 60935 37800.00000 0 11819802.501 7790894.286 -21190887.581 10 0 60935 38700.00000 0 9203821.906 8396554.477 -22233064.214 10 0 60935 39600.00000 0 6542018.544 9221510.362 -22842337.851 10 0 60935 40500.00000 0 3902967.505 10254783.224 -23006941.886 10 0 60935 41400.00000 0 1352647.160 11473401.320 -22723784.298 10 0 60935 42300.00000 0 -1048087.253 12843259.890 -21998499.375 10 0 60935 43200.00000 0 -3245804.666 14320467.124 -20845328.293 10 0 60935 44100.00000 0 -5196478.791 15853119.220 -19286831.529 10 0 60935 45000.00000 0 -6867066.999 17383429.601 -17353439.392 10 0 60935 45900.00000 0 -8236623.267 18850122.522 -15082850.047 10 0 60935 46800.00000 0 -9296900.739 20190990.300 -12519287.264 10 0 60935 47700.00000 0 -10052420.894 21345506.578 -9712632.904 10 0 60935 48600.00000 0 -10520008.768 22257385.892 -6717451.431 10 0 60935 49500.00000 0 -10727816.055 22876982.159 -3591925.825 10 0 60935 50400.00000 0 -10713875.206 23163425.650 -396725.957 10 0 60935 51300.00000 0 -10524247.247 23086409.141 2806168.383 10 0 60935 52200.00000 0 -10210842.731 22627548.787 5954666.842 10 0 60935 53100.00000 0 -9829008.677 21781263.143 8987767.003 10 0 60935 54000.00000 0 -9434983.775 20555133.990 11846729.102 10 0 60935 54900.00000 0 -9083329.262 18969734.162 14476204.698 10 0 60935 55800.00000 0 -8824443.511 17057929.697 16825298.175 10 0 60935 56700.00000 0 -8702264.568 14863685.234 18848541.461 10 0 60935 57600.00000 0 -8752256.764 12440421.911 20506764.183 10 0 60935 58500.00000 0 -8999765.588 9848995.231 21767843.495 10 0 60935 59400.00000 0 -9458809.658 7155375.736 22607320.098 10 0 60935 60300.00000 0 -10131360.546 4428127.300 23008869.358 10 0 60935 61200.00000 0 -11007141.177 1735786.031 22964618.880 10 0 60935 62100.00000 0 -12063952.157 -855753.161 22475306.559 10 0 60935 63000.00000 0 -13268513.722 -3285735.608 21550275.694 10 0 60935 63900.00000 0 -14577789.677 -5500829.144 20207306.550 10 0 60935 64800.00000 0 -15940739.636 -7457095.969 18472286.512 10 0 60935 65700.00000 0 -17300427.935 -9121572.820 16378723.841 10 0 60935 66600.00000 0 -18596402.267 -10473394.029 13967112.968 10 0 60935 67500.00000 0 -19767243.373 -11504410.690 11284162.139 10 0 60935 68400.00000 0 -20753179.308 -12219279.924 8381897.086 10 0 60935 69300.00000 0 -21498654.324 -12635020.254 5316657.157 10 0 60935 70200.00000 0 -21954743.710 -12780051.622 2148002.855 10 0 60935 71100.00000 0 -22081311.729 -12692760.398 -1062444.124 10 0 60935 72000.00000 0 -21848820.180 -12419650.175 -4252205.338 10 0 60935 72900.00000 0 -21239709.586 -12013156.961 -7359170.372 10 0 60935 73800.00000 0 -20249292.930 -11529222.042 -10322816.994 10 0 60935 74700.00000 0 -18886122.566 -11024726.363 -13085401.632 10 0 60935 75600.00000 0 -17171813.387 -10554896.361 -15593095.735 10 0 60935 76500.00000 0 -15140328.548 -10170792.490 -17797044.672 10 0 60935 77400.00000 0 -12836757.051 -9916988.107 -19654327.577 10 0 60935 78300.00000 0 -10315634.096 -9829538.110 -21128798.757 10 0 60935 79200.00000 0 -7638874.492 -9934324.161 -22191793.969 10 0 60935 80100.00000 0 -4873405.754 -10245847.062 -22822687.721 10 0 60935 81000.00000 0 -2088599.933 -10766517.584 -23009291.045 10 0 60935 81900.00000 0 646388.483 -11486475.697 -22748082.446 10 0 60935 82800.00000 0 3265267.644 -12383945.610 -22044268.115 10 0 60935 83700.00000 0 5707126.453 -13426111.223 -20911670.941 10 0 60935 84600.00000 0 7918721.491 -14570474.636 -19372451.122 10 0 60935 85500.00000 0 9856438.425 -15766639.912 -17456664.534 10 0 60936 0.00000 0 11487847.433 -16958446.377 -15201668.226 10 0 60936 900.00000 0 12792790.272 -18086361.806 -12651383.941 10 0 60936 1800.00000 0 13763953.505 -19090032.817 -9855437.590 10 0 60936 2700.00000 0 14406908.988 -19910887.028 -6868187.855 10 0 60936 3600.00000 0 14739619.954 -20494675.810 -3747666.149 10 0 60936 4500.00000 0 14791436.520 -20793851.350 -554447.766 10 0 60936 5400.00000 0 14601624.654 -20769678.167 2649523.426 10 0 60936 6300.00000 0 14217492.120 -20393990.616 5802133.837 10 0 60936 7200.00000 0 13692191.559 -19650522.914 8842299.298 10 0 60936 8100.00000 0 13082293.986 -18535756.185 11711141.521 10 0 60936 9000.00000 0 12445235.251 -17059247.235 14353119.615 10 0 60936 9900.00000 0 11836742.877 -15243425.293 16717095.388 10 0 60936 10800.00000 0 11308351.149 -13122864.957 18757312.812 10 0 60936 11700.00000 0 10905108.312 -10743065.048 20434273.706 10 0 60936 12600.00000 0 10663571.535 -8158783.312 21715493.804 10 0 60936 13500.00000 0 10610173.200 -5431994.937 22576125.588 10 0 60936 14400.00000 0 10760026.687 -2629558.072 22999436.697 10 0 60936 15300.00000 0 11116221.674 179318.474 22977135.154 10 0 60936 16200.00000 0 11669638.878 2925702.219 22509535.272 10 0 60936 17100.00000 0 12399292.776 5543551.514 21605560.758 10 0 60936 18000.00000 0 13273189.129 7972210.694 20282584.229 10 0 60936 18900.00000 0 14249662.766 10158683.593 18566105.166 10 0 60936 19800.00000 0 15279141.055 12059591.899 16489271.179 10 0 60936 20700.00000 0 16306260.473 13642737.313 14092250.355 10 0 60936 21600.00000 0 17272248.510 14888202.572 11421465.400 10 0 60936 22500.00000 0 18117471.517 15788945.215 8528703.051 10 0 60936 23400.00000 0 18784041.414 16350858.914 5470115.123 10 0 60936 24300.00000 0 19218371.074 16592299.480 2305129.959 10 0 60936 25200.00000 0 19373569.672 16543095.265 -904704.677 10 0 60936 26100.00000 0 19211575.552 16243083.609 -4096924.382 10 0 60936 27000.00000 0 18704934.795 15740235.385 -7209372.420 10 0 60936 27900.00000 0 17838148.558 15088447.461 -10181420.664 10 0 60936 28800.00000 0 16608530.365 14345097.305 -12955162.108 10 0 60936 29700.00000 0 15026535.477 13568464.302 -15476550.439 10 0 60936 30600.00000 0 13115546.933 12815128.111 -17696463.300 10 0 60936 31500.00000 0 10911126.146 12137455.361 -19571667.502 10 0 60936 32400.00000 0 8459758.730 11581282.041 -21065666.712 10 0 60936 33300.00000 0 5817147.710 11183890.410 -22149414.739 10 0 60936 34200.00000 0 3046125.399 10972366.418 -22801880.452 10 0 60936 35100.00000 0 214271.243 10962407.184 -23010453.599 10 0 60936 36000.00000 0 -2608664.895 11157628.677 -22771184.055 10 0 60936 36900.00000 0 -5353426.538 11549402.361 -22088850.451 10 0 60936 37800.00000 0 -7953890.677 12117227.016 -20976857.544 10 0 60936 38700.00000 0 -10349574.599 12829619.225 -19456964.992 10 0 60936 39600.00000 0 -12487905.766 13645484.125 -17558853.507 10 0 60936 40500.00000 0 -14326161.248 14515907.767 -15319537.440 10 0 60936 41400.00000 0 -15832997.281 15386294.756 -12782635.760 10 0 60936 42300.00000 0 -16989506.767 16198760.413 -9997516.163 10 0 60936 43200.00000 0 -17789762.528 16894676.092 -7018329.383 10 0 60936 44100.00000 0 -18240825.623 17417260.081 -3902952.886 10 0 60936 45000.00000 0 -18362220.502 17714104.697 -711864.847 10 0 60936 45900.00000 0 -18184901.012 17739533.172 2493029.460 10 0 60936 46800.00000 0 -17749752.451 17456687.181 5649595.981 10 0 60936 47700.00000 0 -17105694.062 16839257.418 8696671.631 10 0 60936 48600.00000 0 -16307462.788 15872784.699 11575242.486 10 0 60936 49500.00000 0 -15413172.014 14555477.097 14229578.069 10 0 60936 50400.00000 0 -14481748.099 12898508.820 16608300.446 10 0 60936 51300.00000 0 -13570352.081 10925788.043 18665368.338 10 0 60936 52200.00000 0 -12731894.258 8673202.752 20360958.293 10 0 60936 53100.00000 0 -12012745.147 6187375.102 21662226.920 10 0 60936 54000.00000 0 -11450737.954 3523974.805 22543940.488 10 0 60936 54900.00000 0 -11073545.554 745660.031 22988960.572 10 0 60936 55800.00000 0 -10897499.441 -2080270.526 22988576.861 10 0 60936 56700.00000 0 -10926899.978 -4884418.971 22542680.911 10 0 60936 57600.00000 0 -11153847.032 -7597919.455 21659777.177 10 0 60936 58500.00000 0 -11558598.752 -10155051.946 20356830.464 10 0 60936 59400.00000 0 -12110444.373 -12495731.545 18658951.663 10 0 60936 60300.00000 0 -12769055.618 -14567771.007 16598926.522 10 0 60936 61200.00000 0 -13486261.160 -16328823.004 14216595.086 10 0 60936 62100.00000 0 -14208170.645 -17747921.433 11558092.355 10 0 60936 63000.00000 0 -14877559.683 -18806557.310 8674963.522 10 0 60936 63900.00000 0 -15436415.671 -19499243.844 5623169.992 10 0 60936 64800.00000 0 -15828536.914 -19833546.519 2462004.820 10 0 60936 65700.00000 0 -16002074.609 -19829576.470 -747061.472 10 0 60936 66600.00000 0 -15911909.076 -19518968.163 -3941581.953 10 0 60936 67500.00000 0 -15521758.221 -18943384.435 -7059357.067 10 0 60936 68400.00000 0 -14805927.196 -18152612.295 -10039656.306 10 0 60936 69300.00000 0 -13750623.382 -17202330.494 -12824412.682 10 0 60936 70200.00000 0 -12354779.203 -16151644.114 -15359365.451 10 0 60936 71100.00000 0 -10630346.327 -15060491.406 -17595127.625 10 0 60936 72000.00000 0 -8602047.392 -13987033.583 -19488156.455 10 0 60936 72900.00000 0 -6306594.575 -12985138.850 -21001607.295 10 0 60936 73800.00000 0 -3791407.011 -12102067.702 -22106053.814 10 0 60936 74700.00000 0 -1112880.347 -11376457.664 -22780060.477 10 0 60936 75600.00000 0 1665719.372 -10836692.623 -23010596.377 10 0 60936 76500.00000 0 4476649.652 -10499725.202 -22793282.808 10 0 60936 77400.00000 0 7250273.414 -10370401.206 -22132470.351 10 0 60936 78300.00000 0 9917721.293 -10441313.712 -21041144.653 10 0 60936 79200.00000 0 12413523.696 -10693191.798 -19540663.414 10 0 60936 80100.00000 0 14678103.445 -11095806.329 -17660330.366 10 0 60936 81000.00000 0 16660025.890 -11609353.353 -15436815.167 10 0 60936 81900.00000 0 18317913.799 -12186255.605 -12913431.033 10 0 60936 82800.00000 0 19621948.425 -12773305.104 -10139284.701 10 0 60936 83700.00000 0 20554895.722 -13314055.570 -7168315.714 10 0 60936 84600.00000 0 21112616.590 -13751363.111 -4058244.101 10 0 60936 85500.00000 0 21304041.694 -14029967.531 -869447.272 10 0 60937 0.00000 0 21150613.845 -14099005.175 2336211.490 10 0 60937 900.00000 0 20685222.947 -13914347.333 5496581.829 10 0 60937 1800.00000 0 19950679.990 -13440665.685 8550424.816 10 0 60937 2700.00000 0 18997795.059 -12653138.153 11438593.911 10 0 60937 3600.00000 0 17883140.918 -11538723.361 14105171.672 10 0 60937 4500.00000 0 16666596.320 -10096950.263 16498542.560 10 0 60937 5400.00000 0 15408771.991 -8340189.556 18572381.720 10 0 60937 6300.00000 0 14168426.657 -6293394.948 20286541.625 10 0 60937 7200.00000 0 12999980.614 -3993324.171 21607820.512 10 0 60937 8100.00000 0 11951229.965 -1487270.915 22510598.769 10 0 60937 9000.00000 0 11061356.173 1168641.192 22977331.846 10 0 60937 9900.00000 0 10359313.361 3911533.500 22998890.698 10 0 60937 10800.00000 0 9862660.179 6674132.049 22574743.382 10 0 60937 11700.00000 0 9576884.800 9387316.224 21712974.078 10 0 60937 12600.00000 0 9495251.436 11982752.464 20430138.484 10 0 60937 13500.00000 0 9599175.197 14395505.363 18750957.378 10 0 60937 14400.00000 0 9859110.358 16566518.947 16707852.909 10 0 60937 15300.00000 0 10235915.613 18444865.698 14340335.155 10 0 60937 16200.00000 0 10682639.847 19989669.960 11694249.308 10 0 60937 17100.00000 0 11146653.985 21171625.366 8820896.757 10 0 60937 18000.00000 0 11572039.497 21974042.376 5776046.083 10 0 60937 18900.00000 0 11902132.751 22393381.398 2618852.536 10 0 60937 19800.00000 0 12082117.211 22439248.427 -589293.206 10 0 60937 20700.00000 0 12061552.885 22133852.769 -3785964.271 10 0 60937 21600.00000 0 11796734.601 21510949.344 -6908920.811 10 0 60937 22500.00000 0 11252777.530 20614310.050 -9897332.326 10 0 60937 23400.00000 0 10405339.818 19495789.019 -12692974.046 10 0 60937 24300.00000 0 9241907.480 18213063.958 -15241372.763 10 0 60937 25200.00000 0 7762585.383 16827149.808 -17492878.607 10 0 60937 26100.00000 0 5980359.287 15399790.565 -19403640.812 10 0 60937 27000.00000 0 3920816.488 13990840.273 -20936467.768 10 0 60937 27900.00000 0 1621335.761 12655744.376 -22061554.196 10 0 60937 28800.00000 0 -870220.149 11443228.096 -22757061.183 10 0 60937 29700.00000 0 -3497255.149 10393289.313 -23009538.014 10 0 60937 30600.00000 0 -6196560.575 9535580.183 -22814178.011 10 0 60937 31500.00000 0 -8900717.611 8888244.920 -22174904.016 10 0 60937 32400.00000 0 -11540681.205 8457261.593 -21104282.520 10 0 60937 33300.00000 0 -14048437.882 8236314.316 -19623268.810 10 0 60937 34200.00000 0 -16359626.918 8207199.665 -17760788.769 10 0 60937 35100.00000 0 -18416016.123 8340748.630 -15553166.110 10 0 60937 36000.00000 0 -20167729.717 8598223.649 -13043406.693 10 0 60937 36900.00000 0 -21575136.322 8933130.390 -10280354.425 10 0 60937 37800.00000 0 -22610319.482 9293366.564 -7317735.569 10 0 60937 38700.00000 0 -23258070.713 9623616.081 -4213110.463 10 0 60937 39600.00000 0 -23516365.128 9867886.709 -1026753.377 10 0 60937 40500.00000 0 -23396301.402 9972083.627 2179517.456 10 0 60937 41400.00000 0 -22921510.206 9886510.017 5343536.806 10 0 60937 42300.00000 0 -22127057.388 9568189.137 8403993.151 10 0 60937 43200.00000 0 -21057889.062 8982910.084 11301610.076 10 0 60937 44100.00000 0 -19766884.694 8106911.220 13980285.928 10 0 60937 45000.00000 0 -18312600.170 6928130.459 16388170.296 10 0 60937 45900.00000 0 -16756795.428 5446969.826 18478657.358 10 0 60937 46800.00000 0 -15161849.709 3676541.743 20211277.947 10 0 60937 47700.00000 0 -13588171.804 1642386.001 21552474.093 10 0 60937 48600.00000 0 -12091712.507 -618331.979 22476242.158 10 0 60937 49500.00000 0 -10721682.075 -3058109.708 22964632.959 10 0 60937 50400.00000 0 -9518566.876 -5620831.223 23008099.810 10 0 60937 51300.00000 0 -8512527.079 -8243856.124 22605687.969 10 0 60937 52200.00000 0 -7722241.582 -10860389.403 21765061.610 10 0 60937 53100.00000 0 -7154248.084 -13402035.650 20502367.182 10 0 60937 54000.00000 0 -6802805.869 -15801433.328 18841934.777 10 0 60937 54900.00000 0 -6650287.336 -17994861.100 16815821.963 10 0 60937 55800.00000 0 -6668082.418 -19924708.641 14463207.453 10 0 60937 56700.00000 0 -6817978.505 -21541709.493 11829644.866 10 0 60937 57600.00000 0 -7053958.452 -22806842.711 8966189.674 10 0 60937 58500.00000 0 -7324341.298 -23692823.317 5928415.243 10 0 60937 59400.00000 0 -7574175.436 -24185118.384 2775336.382 10 0 60937 60300.00000 0 -7747782.772 -24282445.191 -431738.892 10 0 60937 61200.00000 0 -7791345.461 -23996729.609 -3630406.759 10 0 60937 62100.00000 0 -7655424.484 -23352525.742 -6758390.179 10 0 60937 63000.00000 0 -7297301.838 -22385920.806 -9754761.857 10 0 60937 63900.00000 0 -6683045.306 -21142971.301 -12561142.466 10 0 60937 64800.00000 0 -5789206.479 -19677736.669 -15122849.539 10 0 60937 65700.00000 0 -4604078.272 -18049993.893 -17389973.397 10 0 60937 66600.00000 0 -3128457.050 -16322730.118 -19318358.111 10 0 60937 67500.00000 0 -1375875.665 -14559519.771 -20870467.642 10 0 60937 68400.00000 0 627703.670 -12821897.330 -22016119.890 10 0 60937 69300.00000 0 2844724.675 -11166836.842 -22733074.219 10 0 60937 70200.00000 0 5227366.060 -9644444.336 -23007461.251 10 0 60937 71100.00000 0 7719309.053 -8295959.907 -22834046.990 10 0 60937 72000.00000 0 10257869.635 -7152152.774 -22216326.707 10 0 60937 72900.00000 0 12776406.468 -6232175.650 -21166447.447 10 0 60937 73800.00000 0 15206904.082 -5542925.118 -19704961.364 10 0 60937 74700.00000 0 17482623.573 -5078933.237 -17860415.351 10 0 60937 75600.00000 0 19540710.502 -4822793.021 -15668785.582 10 0 60937 76500.00000 0 21324651.592 -4746098.028 -13172768.527 10 0 60937 77400.00000 0 22786478.263 -4810854.599 -10420942.763 10 0 60937 78300.00000 0 23888625.867 -4971305.582 -7466818.343 10 0 60937 79200.00000 0 24605371.991 -5176087.139 -4367792.599 10 0 60937 80100.00000 0 24923794.919 -5370626.510 -1184033.061 10 0 60937 81000.00000 0 24844213.521 -5499678.647 2022690.555 10 0 60937 81900.00000 0 24380091.547 -5509894.140 5190202.498 10 0 60937 82800.00000 0 23557411.646 -5352309.782 8257122.009 10 0 60937 83700.00000 0 22413546.479 -4984656.690 11164046.187 10 0 60937 84600.00000 0 20995675.034 -4373388.778 13854692.214 10 0 60937 85500.00000 0 19358810.935 -3495346.273 16276977.424 10 0 60938 0.00000 0 17563525.483 -2338984.429 18384017.043 10 0 60938 900.00000 0 15673459.276 -905114.942 20135022.367 10 0 60938 1800.00000 0 13752728.054 792869.957 21496080.308 10 0 60938 2700.00000 0 11863326.832 2729303.134 22440804.056 10 0 60938 3600.00000 0 10062641.693 4867065.009 22950840.243 10 0 60938 4500.00000 0 8401170.792 7158890.823 23016224.583 10 0 60938 5400.00000 0 6920548.453 9549110.153 22635579.172 10 0 60938 6300.00000 0 5651953.706 11975748.465 21816147.433 10 0 60938 7200.00000 0 4614968.885 14372905.361 20573665.448 10 0 60938 8100.00000 0 3816935.529 16673312.554 18932071.164 10 0 60938 9000.00000 0 3252834.385 18810966.767 16923055.791 10 0 60938 9900.00000 0 2905694.744 20723729.006 14585464.635 10 0 60938 10800.00000 0 2747516.286 22355782.477 11964557.457 10 0 60938 11700.00000 0 2740665.135 23659846.586 9111141.328 10 0 60938 12600.00000 0 2839685.664 24599053.972 6080591.740 10 0 60938 13500.00000 0 2993451.746 25148411.134 2931780.275 10 0 60938 14400.00000 0 3147566.369 25295780.292 -274070.572 10 0 60938 15300.00000 0 3246907.483 25042340.030 -3474582.893 10 0 60938 16200.00000 0 3238211.277 24402504.306 -6607445.254 10 0 60938 17100.00000 0 3072582.052 23403302.345 -9611636.199 10 0 60938 18000.00000 0 2707820.676 22083245.030 -12428624.278 10 0 60938 18900.00000 0 2110471.167 20490725.375 -15003519.929 10 0 60938 19800.00000 0 1257496.862 18682020.653 -17286155.569 10 0 60938 20700.00000 0 137513.521 16718980.771 -19232071.748 10 0 60938 21600.00000 0 -1248474.322 14666500.806 -20803389.403 10 0 60938 22500.00000 0 -2886866.163 12589884.604 -21969550.792 10 0 60938 23400.00000 0 -4751797.234 10552210.766 -22707914.526 10 0 60938 24300.00000 0 -6805995.901 8611811.849 -23004193.309 10 0 60938 25200.00000 0 -9002131.262 6819972.434 -22852726.294 10 0 60938 26100.00000 0 -11284594.655 5218942.075 -22256581.333 10 0 60938 27000.00000 0 -13591640.625 3840345.479 -21227485.817 10 0 60938 27900.00000 0 -15857797.807 2704055.171 -19785588.162 10 0 60938 28800.00000 0 -18016448.937 1817572.210 -17959055.257 10 0 60938 29700.00000 0 -20002472.245 1175938.977 -15783514.360 10 0 60938 30600.00000 0 -21754834.081 762185.546 -13301350.836 10 0 60938 31500.00000 0 -23219024.701 548288.771 -10560875.960 10 0 60938 32400.00000 0 -24349235.965 496601.683 -7615381.397 10 0 60938 33300.00000 0 -25110190.564 561691.138 -4522099.142 10 0 60938 34200.00000 0 -25478547.150 692504.722 -1341087.526 10 0 60938 35100.00000 0 -25443823.567 834774.279 1865934.827 10 0 60938 36000.00000 0 -25008800.675 933553.777 5036784.308 10 0 60938 36900.00000 0 -24189390.908 935783.921 8110013.669 10 0 60938 37800.00000 0 -23013978.090 792775.075 11026096.317 10 0 60938 38700.00000 0 -21522256.877 462503.831 13728571.051 10 0 60938 39600.00000 0 -19763620.859 -88373.405 16165125.666 10 0 60938 40500.00000 0 -17795166.783 -882874.438 18288599.328 10 0 60938 41400.00000 0 -15679397.920 -1932482.111 20057885.340 10 0 60938 42300.00000 0 -13481721.721 -3236422.962 21438717.895 10 0 60938 43200.00000 0 -11267845.017 -4781464.571 22404328.627 10 0 60938 44100.00000 0 -9101173.957 -6542241.137 22935961.197 10 0 60938 45000.00000 0 -7040325.513 -8482095.111 23023234.522 10 0 60938 45900.00000 0 -5136852.696 -10554401.575 22664347.934 10 0 60938 46800.00000 0 -3433276.842 -12704322.183 21866124.127 10 0 60938 47700.00000 0 -1961507.881 -14870917.664 20643888.472 10 0 60938 48600.00000 0 -741717.655 -16989532.914 19021186.074 10 0 60938 49500.00000 0 218287.122 -18994357.023 17029340.755 10 0 60938 50400.00000 0 923166.150 -20821052.810 14706863.048 10 0 60938 51300.00000 0 1389616.724 -22409346.919 12098717.167 10 0 60938 52200.00000 0 1645432.560 -23705472.489 9255459.798 10 0 60938 53100.00000 0 1728089.585 -24664361.798 6232266.310 10 0 60938 54000.00000 0 1682918.148 -25251496.219 3087862.596 10 0 60938 54900.00000 0 1560938.960 -25444334.648 -116617.012 10 0 60938 55800.00000 0 1416454.696 -25233259.005 -3318823.297 10 0 60938 56700.00000 0 1304500.031 -24621995.670 -6456413.305 10 0 60938 57600.00000 0 1278259.337 -23627493.838 -9468274.364 10 0 60938 58500.00000 0 1386562.938 -22279264.980 -12295725.866 10 0 60938 59400.00000 0 1671569.729 -20618210.604 -14883674.097 10 0 60938 60300.00000 0 2166736.071 -18694987.451 -17181696.406 10 0 60938 61200.00000 0 2895158.645 -16567979.033 -19145032.468 10 0 60938 62100.00000 0 3868362.920 -14300959.156 -20735462.572 10 0 60938 63000.00000 0 5085589.683 -11960546.059 -21922055.359 10 0 60938 63900.00000 0 6533610.813 -9613554.463 -22681770.302 10 0 60938 64800.00000 0 8187082.754 -7324356.874 -22999903.364 10 0 60938 65700.00000 0 10009423.336 -5152364.613 -22870367.592 10 0 60938 66600.00000 0 11954175.327 -3149733.745 -22295803.742 10 0 60938 67500.00000 0 13966799.577 -1359391.071 -21287519.470 10 0 60938 68400.00000 0 15986822.552 186538.426 -19865258.987 10 0 60938 69300.00000 0 17950248.178 1467838.461 -18056808.330 10 0 60938 70200.00000 0 19792132.932 2476798.228 -15897444.590 10 0 60938 71100.00000 0 21449216.381 3218276.263 -13429240.362 10 0 60938 72000.00000 0 22862497.115 3709230.956 -10700237.520 10 0 60938 72900.00000 0 23979646.503 3977739.725 -7763506.808 10 0 60938 73800.00000 0 24757159.612 4061550.219 -4676111.972 10 0 60938 74700.00000 0 25162153.773 4006226.441 -1497998.914 10 0 60938 75600.00000 0 25173740.193 3862969.476 1709168.265 10 0 60938 76500.00000 0 24783911.951 3686205.910 4883201.614 10 0 60938 77400.00000 0 23997912.066 3531046.432 7962590.873 10 0 60938 78300.00000 0 22834066.953 3450722.250 10887689.075 10 0 60938 79200.00000 0 21323092.895 3494107.519 13601859.714 10 0 60938 80100.00000 0 19506904.880 3703432.058 16052563.810 10 0 60938 81000.00000 0 17436977.636 4112280.442 18192366.720 10 0 60938 81900.00000 0 15172326.901 4743961.442 19979846.201 10 0 60938 82800.00000 0 12777194.426 5610316.262 21380385.204 10 0 60938 83700.00000 0 10318532.050 6711015.857 22366835.120 10 0 60938 84600.00000 0 7863388.161 8033377.403 22920037.549 10 0 60938 85500.00000 0 5476303.757 9552708.670 23029195.116 99